Location: Chochol
(49.7771°N, 14.9780°E)
Time: 03:52:32
(UTC+00:00)

STARLINK-1244 - Pass Details

Date: 09 April 2020
Orbit: 549 x 551 km, 53.0° (Epoch: 01 June)

Event Time Altitude Azimuth Distance (km) Brightness Sun altitude
Rises 19:45:46 0° 293° (WNW) 2,786 8.7 -18.3°
Reaches altitude 10° 19:48:03 10° 289° (WNW) 1,887 7.4 -18.6°
Maximum altitude 19:52:15 54° 212° (SSW) 705 4.0 -19.1°
Enters shadow 19:53:15 43° 166° (SSE) 820 4.1 -19.2°
